| time (UTC) | temp F | wind direction | speed MPH | gust MPH | rain 1hr in | rain 24hr in | rain mn in | humidity % | barometer mb |
| 20260903102858 | 71 | 225 | 11.0 | 21.0 | 0.00 | 0.05 | 0.05 | 88 | 1017.1 |
| 20260903102400 | 71 | 250 | 11.0 | 20.0 | 0.00 | 0.05 | 0.05 | 89 | 1017.2 |
| 20260903102341 | 70 | 240 | 11.0 | 20.0 | 0.00 | 0.05 | 0.05 | 90 | 1017.3 |
| 20260903101358 | 69 | 227 | 10.0 | 19.0 | 0.00 | 0.05 | 0.05 | 92 | 1017.3 |
| 20260903100858 | 69 | 237 | 9.0 | 19.0 | 0.00 | 0.05 | 0.05 | 93 | 1017.1 |
| 20260903100358 | 69 | 218 | 8.0 | 17.0 | 0.00 | 0.05 | 0.05 | 94 | 1017.1 |
| 20260903095858 | 68 | 219 | 8.0 | 17.0 | 0.00 | 0.05 | 0.05 | 94 | 1017.1 |
| 20260903095838 | 68 | 222 | 9.0 | 21.0 | 0.00 | 0.05 | 0.05 | 95 | 1017.1 |
| 20260903094856 | 68 | 245 | 9.0 | 21.0 | 0.00 | 0.05 | 0.05 | 95 | 1017.2 |
| 20260903094839 | 68 | 247 | 8.0 | 17.0 | 0.00 | 0.05 | 0.05 | 96 | 1017.1 |
| 20260903094609 | 68 | 189 | 9.0 | 19.0 | 0.00 | 0.05 | 0.05 | 96 | 1017.1 |
| 20260903093357 | 68 | 229 | 7.0 | 15.0 | 0.00 | 0.05 | 0.05 | 96 | 1017.1 |
| 20260903093346 | 67 | 204 | 8.0 | 16.0 | 0.00 | 0.05 | 0.05 | 97 | 1017.0 |
| 20260903092843 | 67 | 204 | 8.0 | 18.0 | 0.00 | 0.05 | 0.05 | 97 | 1017.1 |
| 20260903092611 | 67 | 167 | 7.0 | 17.0 | 0.00 | 0.05 | 0.05 | 97 | 1017.1 |
| 20260903091354 | 67 | 242 | 8.0 | 18.0 | 0.00 | 0.05 | 0.05 | 97 | 1017.1 |
| 20260903090857 | 67 | 210 | 7.0 | 17.0 | 0.01 | 0.05 | 0.05 | 97 | 1016.9 |
| 20260903090847 | 67 | 185 | 8.0 | 17.0 | 0.01 | 0.05 | 0.05 | 97 | 1016.9 |
| 20260903085851 | 67 | 171 | 8.0 | 16.0 | 0.01 | 0.05 | 0.05 | 98 | 1016.8 |
| 20260903085840 | 67 | 222 | 7.0 | 15.0 | 0.01 | 0.05 | 0.05 | 98 | 1016.8 |
| 20260903084853 | 66 | 244 | 7.0 | 20.0 | 0.01 | 0.05 | 0.05 | 97 | 1016.8 |
| 20260903084838 | 66 | 211 | 7.0 | 20.0 | 0.01 | 0.05 | 0.05 | 97 | 1016.6 |
| 20260903083852 | 66 | 247 | 6.0 | 16.0 | 0.01 | 0.05 | 0.05 | 97 | 1016.6 |
| 20260903083353 | 66 | 225 | 7.0 | 15.0 | 0.02 | 0.05 | 0.05 | 98 | 1016.5 |
| 20260903082855 | 66 | 237 | 7.0 | 16.0 | 0.02 | 0.05 | 0.05 | 97 | 1016.5 |
| 20260903082354 | 65 | 233 | 7.0 | 16.0 | 0.02 | 0.05 | 0.05 | 97 | 1016.5 |
| 20260903081851 | 65 | 179 | 6.0 | 16.0 | 0.02 | 0.05 | 0.05 | 97 | 1016.5 |
| 20260903081352 | 65 | 218 | 6.0 | 16.0 | 0.02 | 0.05 | 0.05 | 97 | 1016.6 |
| 20260903080847 | 65 | 225 | 7.0 | 16.0 | 0.02 | 0.04 | 0.04 | 97 | 1016.6 |
| 20260903080348 | 65 | 177 | 8.0 | 16.0 | 0.02 | 0.04 | 0.04 | 97 | 1016.6 |
| 20260903075851 | 65 | 197 | 7.0 | 15.0 | 0.02 | 0.04 | 0.04 | 97 | 1016.7 |
| 20260903075347 | 65 | 232 | 7.0 | 14.0 | 0.02 | 0.04 | 0.04 | 97 | 1016.6 |
| 20260903074846 | 65 | 177 | 7.0 | 17.0 | 0.02 | 0.04 | 0.04 | 97 | 1016.4 |
| 20260903074341 | 65 | 212 | 7.0 | 17.0 | 0.02 | 0.04 | 0.04 | 96 | 1016.5 |
| 20260903073842 | 65 | 187 | 7.0 | 17.0 | 0.02 | 0.04 | 0.04 | 96 | 1016.5 |
| 20260903073344 | 65 | 239 | 8.0 | 17.0 | 0.02 | 0.03 | 0.03 | 96 | 1016.5 |
| 20260903072841 | 65 | 194 | 8.0 | 16.0 | 0.02 | 0.03 | 0.03 | 96 | 1016.7 |
| 20260903072342 | 65 | 229 | 8.0 | 16.0 | 0.02 | 0.03 | 0.03 | 96 | 1016.6 |
| 20260903071844 | 65 | 279 | 8.0 | 17.0 | 0.02 | 0.03 | 0.03 | 96 | 1016.5 |
| 20260903071341 | 65 | 214 | 9.0 | 18.0 | 0.02 | 0.03 | 0.03 | 96 | 1016.5 |
| 20260903070838 | 65 | 240 | 8.0 | 18.0 | 0.01 | 0.02 | 0.02 | 96 | 1016.7 |
| 20260903070336 | 65 | 193 | 7.0 | 17.0 | 0.02 | 0.02 | 0.02 | 96 | 1016.7 |
| 20260903065838 | 65 | 220 | 7.0 | 15.0 | 0.02 | 0.02 | 0.02 | 95 | 1016.7 |
| 20260903065337 | 65 | 158 | 7.0 | 16.0 | 0.02 | 0.02 | 0.02 | 95 | 1016.7 |
| 20260903064838 | 65 | 244 | 7.0 | 16.0 | 0.02 | 0.02 | 0.02 | 95 | 1016.6 |
| 20260903064338 | 65 | 225 | 7.0 | 15.0 | 0.02 | 0.02 | 0.02 | 95 | 1016.6 |
| 20260903063835 | 65 | 231 | 7.0 | 14.0 | 0.02 | 0.02 | 0.02 | 94 | 1016.7 |
| 20260903063337 | 65 | 197 | 7.0 | 16.0 | 0.02 | 0.02 | 0.02 | 94 | 1016.7 |
| 20260903062835 | 65 | 223 | 7.0 | 16.0 | 0.02 | 0.02 | 0.02 | 94 | 1016.6 |
| 20260903062823 | 65 | 222 | 6.0 | 13.0 | 0.02 | 0.02 | 0.02 | 93 | 1016.5 |
| 20260903061833 | 65 | 179 | 6.0 | 15.0 | 0.02 | 0.02 | 0.02 | 93 | 1016.5 |
| 20260903061334 | 65 | 171 | 6.0 | 15.0 | 0.02 | 0.02 | 0.02 | 92 | 1016.6 |
| 20260903060836 | 66 | 165 | 6.0 | 13.0 | 0.02 | 0.02 | 0.02 | 92 | 1016.5 |
| 20260903060332 | 66 | 246 | 6.0 | 14.0 | 0.01 | 0.01 | 0.01 | 91 | 1016.4 |
| 20260903055835 | 66 | 239 | 7.0 | 14.0 | 0.01 | 0.01 | 0.01 | 90 | 1016.4 |
| 20260903055331 | 66 | 212 | 7.0 | 16.0 | 0.01 | 0.01 | 0.01 | 90 | 1016.4 |
| 20260903054833 | 67 | 181 | 7.0 | 18.0 | 0.01 | 0.01 | 0.00 | 89 | 1016.4 |
| 20260903054331 | 66 | 208 | 8.0 | 18.0 | 0.00 | 0.00 | 0.00 | 89 | 1016.4 |
| 20260903053831 | 66 | 183 | 8.0 | 15.0 | 0.00 | 0.00 | 0.00 | 88 | 1016.4 |
| 20260903053333 | 67 | 206 | 8.0 | 16.0 | 0.00 | 0.00 | 0.00 | 88 | 1016.3 |
| 20260903052833 | 67 | 179 | 9.0 | 16.0 | 0.00 | 0.00 | 0.00 | 88 | 1016.3 |
| 20260903052333 | 67 | 228 | 9.0 | 19.0 | 0.00 | 0.00 | 0.00 | 88 | 1016.3 |
| 20260903051833 | 67 | 205 | 8.0 | 19.0 | 0.00 | 0.00 | 0.00 | 87 | 1016.4 |
| 20260903051332 | 67 | 214 | 8.0 | 18.0 | 0.00 | 0.00 | 0.00 | 87 | 1016.4 |
| 20260903050833 | 67 | 171 | 8.0 | 19.0 | 0.00 | 0.00 | 0.00 | 87 | 1016.3 |
| 20260903050333 | 67 | 218 | 8.0 | 19.0 | 0.00 | 0.00 | 0.00 | 87 | 1016.2 |
| 20260903045833 | 67 | 197 | 7.0 | 15.0 | 0.00 | 0.00 | 0.00 | 87 | 1016.2 |
| 20260903045330 | 67 | 197 | 7.0 | 18.0 | 0.00 | 0.00 | 0.00 | 86 | 1016.4 |
| 20260903044833 | 67 | 210 | 7.0 | 18.0 | 0.00 | 0.00 | 0.00 | 86 | 1016.3 |
| 20260903044332 | 67 | 157 | 9.0 | 20.0 | 0.00 | 0.00 | 0.00 | 86 | 1016.4 |
| 20260903043831 | 67 | 231 | 10.0 | 21.0 | 0.00 | 0.00 | 0.00 | 86 | 1016.3 |
| 20260903043820 | 66 | 222 | 7.0 | 18.0 | 0.00 | 0.00 | 0.00 | 86 | 1016.1 |
| 20260903043810 | 66 | 200 | 9.0 | 20.0 | 0.00 | 0.00 | 0.00 | 86 | 1016.1 |
| 20260903043537 | 66 | 202 | 9.0 | 21.0 | 0.00 | 0.00 | 0.00 | 86 | 1016.2 |
| 20260903041830 | 66 | 219 | 7.0 | 17.0 | 0.00 | 0.00 | 0.00 | 86 | 1016.1 |
| 20260903041329 | 66 | 229 | 8.0 | 19.0 | 0.00 | 0.00 | 0.00 | 86 | 1016.1 |
| 20260903040831 | 66 | 247 | 8.0 | 20.0 | 0.00 | 0.00 | 0.00 | 86 | 1016.2 |
| 20260903040333 | 66 | 174 | 8.0 | 20.0 | 0.00 | 0.00 | 0.00 | 86 | 1016.2 |
| 20260903040326 | 66 | 200 | 8.0 | 19.0 | 0.00 | 0.00 | 0.00 | 86 | 1016.3 |
| 20260903035331 | 66 | 231 | 8.0 | 17.0 | 0.00 | 0.00 | 0.00 | 86 | 1016.4 |
| 20260903034829 | 66 | 183 | 7.0 | 17.0 | 0.00 | 0.00 | 0.00 | 86 | 1016.5 |
| 20260903034330 | 66 | 179 | 6.0 | 13.0 | 0.00 | 0.00 | 0.00 | 86 | 1016.6 |
| 20260903033829 | 66 | 227 | 7.0 | 15.0 | 0.00 | 0.00 | 0.00 | 86 | 1016.7 |
| 20260903033818 | 66 | 200 | 8.0 | 15.0 | 0.00 | 0.00 | 0.00 | 86 | 1016.8 |
| 20260903032829 | 66 | 232 | 7.0 | 15.0 | 0.00 | 0.00 | 0.00 | 86 | 1016.9 |
| 20260903032331 | 66 | 243 | 7.0 | 15.0 | 0.00 | 0.00 | 0.00 | 86 | 1016.8 |
| 20260903031832 | 66 | 222 | 7.0 | 20.0 | 0.00 | 0.00 | 0.00 | 86 | 1016.7 |
| 20260903031330 | 66 | 207 | 7.0 | 20.0 | 0.00 | 0.00 | 0.00 | 86 | 1016.7 |
| 20260903030830 | 66 | 195 | 7.0 | 16.0 | 0.00 | 0.00 | 0.00 | 86 | 1016.6 |
| 20260903030330 | 66 | 189 | 8.0 | 16.0 | 0.00 | 0.00 | 0.00 | 86 | 1016.6 |
| 20260903025827 | 65 | 212 | 7.0 | 16.0 | 0.00 | 0.00 | 0.00 | 86 | 1016.6 |
| 20260903025323 | 65 | 216 | 6.0 | 16.0 | 0.00 | 0.00 | 0.00 | 86 | 1016.6 |
| 20260903024825 | 65 | 148 | 8.0 | 18.0 | 0.00 | 0.00 | 0.00 | 86 | 1016.7 |
| 20260903024323 | 66 | 203 | 8.0 | 18.0 | 0.00 | 0.00 | 0.00 | 86 | 1016.7 |
| 20260903023823 | 66 | 163 | 8.0 | 16.0 | 0.00 | 0.00 | 0.00 | 86 | 1016.8 |
| 20260903023325 | 66 | 199 | 9.0 | 25.0 | 0.00 | 0.00 | 0.00 | 85 | 1017.0 |
| 20260903022826 | 67 | 251 | 10.0 | 25.0 | 0.00 | 0.00 | 0.00 | 84 | 1016.9 |
| 20260903022325 | 66 | 177 | 9.0 | 19.0 | 0.00 | 0.00 | 0.00 | 83 | 1016.9 |
| 20260903021824 | 66 | 227 | 8.0 | 19.0 | 0.00 | 0.00 | 0.00 | 84 | 1016.9 |
| 20260903021325 | 66 | 187 | 8.0 | 17.0 | 0.00 | 0.00 | 0.00 | 84 | 1017.1 |
| 20260903020821 | 66 | 220 | 8.0 | 17.0 | 0.00 | 0.00 | 0.00 | 84 | 1017.0 |
| 20260903020323 | 66 | 196 | 6.0 | 17.0 | 0.00 | 0.00 | 0.00 | 84 | 1017.0 |
| 20260903015821 | 66 | 158 | 7.0 | 16.0 | 0.00 | 0.00 | 0.00 | 84 | 1017.0 |
| 20260903015322 | 66 | 220 | 7.0 | 16.0 | 0.00 | 0.00 | 0.00 | 83 | 1017.0 |
| 20260903014824 | 66 | 172 | 7.0 | 15.0 | 0.00 | 0.00 | 0.00 | 83 | 1017.0 |
| 20260903014321 | 66 | 190 | 6.0 | 14.0 | 0.00 | 0.00 | 0.00 | 82 | 1017.2 |
| 20260903014308 | 66 | 177 | 6.0 | 13.0 | 0.00 | 0.00 | 0.00 | 82 | 1017.3 |
| 20260903014030 | 66 | 228 | 6.0 | 12.0 | 0.00 | 0.00 | 0.00 | 82 | 1017.2 |
| 20260903013313 | 66 | 209 | 6.0 | 13.0 | 0.00 | 0.00 | 0.00 | 82 | 1017.3 |
| 20260903012323 | 66 | 220 | 6.0 | 15.0 | 0.00 | 0.00 | 0.00 | 81 | 1017.3 |
| 20260903011823 | 66 | 231 | 7.0 | 15.0 | 0.00 | 0.00 | 0.00 | 81 | 1017.3 |
| 20260903011321 | 66 | 207 | 6.0 | 14.0 | 0.00 | 0.00 | 0.00 | 81 | 1017.4 |
| 20260903010818 | 66 | 180 | 5.0 | 13.0 | 0.00 | 0.00 | 0.00 | 81 | 1017.5 |
| 20260903010317 | 66 | 215 | 6.0 | 14.0 | 0.00 | 0.00 | 0.00 | 80 | 1017.7 |
| 20260903005817 | 66 | 183 | 6.0 | 15.0 | 0.00 | 0.00 | 0.00 | 80 | 1017.6 |
| 20260903005317 | 66 | 232 | 6.0 | 15.0 | 0.00 | 0.00 | 0.00 | 80 | 1017.6 |
| 20260903004817 | 66 | 183 | 7.0 | 16.0 | 0.00 | 0.00 | 0.00 | 80 | 1017.6 |
| 20260903004319 | 66 | 187 | 6.0 | 16.0 | 0.00 | 0.00 | 0.00 | 79 | 1017.6 |
| 20260903003819 | 66 | 229 | 7.0 | 16.0 | 0.00 | 0.00 | 0.00 | 79 | 1017.8 |
| 20260903003315 | 66 | 199 | 7.0 | 16.0 | 0.00 | 0.00 | 0.00 | 79 | 1017.8 |
| 20260903003258 | 67 | 203 | 7.0 | 17.0 | 0.00 | 0.00 | 0.00 | 78 | 1018.0 |
| 20260903002319 | 67 | 224 | 8.0 | 17.0 | 0.00 | 0.00 | 0.00 | 77 | 1018.1 |
| 20260903001816 | 67 | 247 | 7.0 | 15.0 | 0.00 | 0.00 | 0.00 | 77 | 1018.0 |
| 20260903001317 | 66 | 228 | 6.0 | 15.0 | 0.00 | 0.00 | 0.00 | 77 | 1018.0 |
| 20260903000817 | 66 | 176 | 5.0 | 12.0 | 0.00 | 0.00 | 0.00 | 77 | 1018.0 |
| 20260903000317 | 66 | 210 | 6.0 | 15.0 | 0.00 | 0.00 | 0.00 | 77 | 1018.0 |
| 20260902235814 | 67 | 210 | 7.0 | 15.0 | 0.00 | 0.00 | 0.00 | 77 | 1018.0 |
| 20260902235315 | 66 | 208 | 7.0 | 14.0 | 0.00 | 0.00 | 0.00 | 77 | 1018.0 |
| 20260902234814 | 66 | 210 | 7.0 | 16.0 | 0.00 | 0.00 | 0.00 | 77 | 1018.3 |
| 20260902234314 | 66 | 216 | 8.0 | 17.0 | 0.00 | 0.00 | 0.00 | 77 | 1018.4 |
| 20260902233816 | 67 | 200 | 8.0 | 17.0 | 0.00 | 0.00 | 0.00 | 77 | 1018.3 |
| 20260902233316 | 67 | 219 | 7.0 | 17.0 | 0.00 | 0.00 | 0.00 | 76 | 1018.2 |
| 20260902232817 | 67 | 217 | 8.0 | 20.0 | 0.00 | 0.00 | 0.00 | 76 | 1018.4 |
| 20260902232309 | 67 | 187 | 8.0 | 20.0 | 0.00 | 0.00 | 0.00 | 76 | 1018.4 |
| 20260902231809 | 67 | 216 | 7.0 | 17.0 | 0.00 | 0.00 | 0.00 | 76 | 1018.5 |
| 20260902231313 | 67 | 216 | 8.0 | 22.0 | 0.00 | 0.00 | 0.00 | 76 | 1018.5 |
| 20260902230810 | 66 | 215 | 8.0 | 22.0 | 0.00 | 0.00 | 0.00 | 76 | 1018.6 |
| 20260902230310 | 66 | 223 | 7.0 | 16.0 | 0.00 | 0.00 | 0.00 | 77 | 1018.7 |
| 20260902225812 | 66 | 209 | 6.0 | 16.0 | 0.00 | 0.00 | 0.00 | 78 | 1018.7 |
| 20260902225308 | 65 | 204 | 6.0 | 16.0 | 0.00 | 0.00 | 0.00 | 78 | 1018.7 |
| 20260902224809 | 65 | 211 | 6.0 | 11.0 | 0.00 | 0.00 | 0.00 | 80 | 1018.7 |
| 20260902224311 | 65 | 214 | 5.0 | 11.0 | 0.00 | 0.00 | 0.00 | 80 | 1018.8 |
| 20260902223808 | 65 | 219 | 5.0 | 12.0 | 0.00 | 0.00 | 0.00 | 81 | 1018.8 |
| 20260902223308 | 65 | 188 | 5.0 | 12.0 | 0.00 | 0.00 | 0.00 | 81 | 1018.9 |
| 20260902222806 | 65 | 182 | 4.0 | 10.0 | 0.00 | 0.00 | 0.00 | 81 | 1019.0 |
| 20260902222745 | 65 | 203 | 3.0 | 8.0 | 0.00 | 0.00 | 0.00 | 81 | 1018.9 |
| 20260902222238 | 65 | 218 | 5.0 | 15.0 | 0.00 | 0.00 | 0.00 | 81 | 1019.1 |
| 20260902221307 | 65 | 179 | 6.0 | 15.0 | 0.00 | 0.00 | 0.00 | 80 | 1019.1 |
| 20260902220807 | 65 | 222 | 6.0 | 15.0 | 0.00 | 0.00 | 0.00 | 80 | 1019.2 |
| 20260902220309 | 66 | 234 | 7.0 | 19.0 | 0.00 | 0.00 | 0.00 | 79 | 1019.2 |
| 20260902215806 | 66 | 229 | 9.0 | 20.0 | 0.00 | 0.00 | 0.00 | 78 | 1019.4 |
| 20260902215742 | 67 | 299 | 10.0 | 20.0 | 0.00 | 0.00 | 0.00 | 77 | 1019.4 |
| 20260902214803 | 67 | 235 | 8.0 | 17.0 | 0.00 | 0.00 | 0.00 | 76 | 1019.2 |
| 20260902214304 | 67 | 208 | 9.0 | 18.0 | 0.00 | 0.00 | 0.00 | 77 | 1019.2 |
| 20260902213806 | 66 | 231 | 8.0 | 18.0 | 0.00 | 0.00 | 0.00 | 77 | 1019.1 |
| 20260902213307 | 66 | 204 | 6.0 | 16.0 | 0.00 | 0.00 | 0.00 | 79 | 1019.0 |
| 20260902213255 | 66 | 208 | 6.0 | 16.0 | 0.00 | 0.00 | 0.00 | 81 | 1019.1 |
| 20260902212740 | 66 | 157 | 6.0 | 16.0 | 0.00 | 0.00 | 0.00 | 82 | 1019.1 |
| 20260902212003 | 65 | 147 | 5.0 | 16.0 | 0.00 | 0.00 | 0.00 | 83 | 1019.1 |
| 20260902211503 | 65 | 186 | 3.0 | 7.0 | 0.00 | 0.00 | 0.00 | 85 | 1019.1 |
| 20260902210306 | 65 | 199 | 4.0 | 7.0 | 0.00 | 0.00 | 0.00 | 85 | 1019.2 |
| 20260902205805 | 65 | 160 | 4.0 | 8.0 | 0.00 | 0.00 | 0.00 | 85 | 1019.2 |
| 20260902205306 | 65 | 165 | 4.0 | 8.0 | 0.00 | 0.00 | 0.00 | 85 | 1019.2 |
| 20260902204806 | 65 | 153 | 3.0 | 7.0 | 0.00 | 0.00 | 0.00 | 85 | 1019.3 |
| 20260902204306 | 65 | 177 | 4.0 | 7.0 | 0.00 | 0.00 | 0.00 | 85 | 1019.3 |
| 20260902204248 | 65 | 181 | 5.0 | 8.0 | 0.00 | 0.00 | 0.00 | 85 | 1019.3 |
| 20260902203305 | 65 | 165 | 5.0 | 8.0 | 0.00 | 0.00 | 0.00 | 85 | 1019.3 |
| 20260902202802 | 65 | 200 | 4.0 | 8.0 | 0.00 | 0.00 | 0.00 | 85 | 1019.3 |
| 20260902202306 | 65 | 163 | 2.0 | 7.0 | 0.00 | 0.00 | 0.00 | 85 | 1019.4 |
| 20260902201804 | 65 | 166 | 2.0 | 6.0 | 0.00 | 0.00 | 0.00 | 85 | 1019.5 |
| 20260902201302 | 65 | 195 | 2.0 | 6.0 | 0.00 | 0.00 | 0.00 | 85 | 1019.4 |
| 20260902200805 | 65 | 160 | 3.0 | 5.0 | 0.00 | 0.00 | 0.00 | 85 | 1019.5 |
| 20260902200303 | 65 | 162 | 3.0 | 5.0 | 0.00 | 0.00 | 0.00 | 85 | 1019.6 |
| 20260902200243 | 65 | 187 | 2.0 | 5.0 | 0.00 | 0.00 | 0.00 | 85 | 1019.6 |
| 20260902195306 | 65 | 189 | 2.0 | 5.0 | 0.00 | 0.00 | 0.00 | 85 | 1019.6 |
| 20260902194801 | 65 | 158 | 2.0 | 5.0 | 0.00 | 0.00 | 0.00 | 85 | 1019.5 |
| 20260902194303 | 66 | 177 | 2.0 | 5.0 | 0.00 | 0.00 | 0.00 | 84 | 1019.6 |
| 20260902193803 | 66 | 175 | 2.0 | 4.0 | 0.00 | 0.00 | 0.00 | 84 | 1019.5 |
| 20260902193303 | 66 | 185 | 2.0 | 5.0 | 0.00 | 0.00 | 0.00 | 84 | 1019.7 |
| 20260902192800 | 66 | 183 | 3.0 | 6.0 | 0.00 | 0.00 | 0.00 | 84 | 1019.8 |
| 20260902192741 | 66 | 174 | 3.0 | 7.0 | 0.00 | 0.00 | 0.00 | 83 | 1019.7 |
| 20260902191759 | 66 | 168 | 3.0 | 7.0 | 0.00 | 0.00 | 0.00 | 83 | 1019.8 |
| 20260902191257 | 66 | 200 | 3.0 | 5.0 | 0.00 | 0.00 | 0.00 | 82 | 1019.9 |
| 20260902190756 | 66 | 172 | 3.0 | 5.0 | 0.00 | 0.00 | 0.00 | 82 | 1020.0 |
| 20260902190254 | 66 | 227 | 2.0 | 6.0 | 0.00 | 0.00 | 0.00 | 82 | 1019.9 |
| 20260902185755 | 66 | 171 | 3.0 | 6.0 | 0.00 | 0.00 | 0.00 | 82 | 1019.8 |
| 20260902185248 | 66 | 176 | 3.0 | 6.0 | 0.00 | 0.00 | 0.00 | 82 | 1019.8 |
| 20260902184746 | 67 | 189 | 3.0 | 5.0 | 0.00 | 0.00 | 0.00 | 81 | 1019.7 |
| 20260902184245 | 67 | 177 | 3.0 | 5.0 | 0.00 | 0.00 | 0.00 | 81 | 1019.7 |
| 20260902184234 | 67 | 169 | 2.0 | 5.0 | 0.00 | 0.00 | 0.00 | 81 | 1019.7 |
| 20260902183246 | 67 | 183 | 2.0 | 6.0 | 0.00 | 0.00 | 0.00 | 80 | 1019.8 |
| 20260902183218 | 67 | 330 | 3.0 | 7.0 | 0.00 | 0.00 | 0.00 | 80 | 1019.7 |
| 20260902182245 | 67 | 179 | 3.0 | 7.0 | 0.00 | 0.00 | 0.00 | 80 | 1019.7 |
| 20260902181745 | 67 | 217 | 3.0 | 5.0 | 0.00 | 0.00 | 0.00 | 80 | 1019.7 |
| 20260902181245 | 67 | 193 | 3.0 | 8.0 | 0.00 | 0.00 | 0.00 | 80 | 1019.8 |
| 20260902180746 | 67 | 186 | 3.0 | 8.0 | 0.00 | 0.00 | 0.00 | 79 | 1019.8 |
| 20260902180245 | 67 | 199 | 3.0 | 8.0 | 0.00 | 0.00 | 0.00 | 79 | 1020.0 |
| 20260902180225 | 67 | 209 | 3.0 | 10.0 | 0.00 | 0.00 | 0.00 | 79 | 1020.0 |
| 20260902175246 | 68 | 251 | 3.0 | 10.0 | 0.00 | 0.00 | 0.00 | 79 | 1020.0 |
| 20260902174745 | 68 | 220 | 5.0 | 11.0 | 0.00 | 0.00 | 0.00 | 79 | 1019.9 |
| 20260902174246 | 68 | 184 | 5.0 | 11.0 | 0.00 | 0.00 | 0.00 | 78 | 1019.9 |
| 20260902173746 | 68 | 170 | 3.0 | 9.0 | 0.00 | 0.00 | 0.00 | 78 | 1019.9 |
| 20260902173245 | 68 | 210 | 4.0 | 9.0 | 0.00 | 0.00 | 0.00 | 78 | 1019.8 |
| 20260902173220 | 68 | 330 | 4.0 | 8.0 | 0.00 | 0.00 | 0.00 | 77 | 1020.0 |
| 20260902172242 | 68 | 181 | 4.0 | 10.0 | 0.00 | 0.00 | 0.00 | 77 | 1020.0 |
| 20260902171745 | 68 | 213 | 4.0 | 10.0 | 0.00 | 0.00 | 0.00 | 77 | 1019.9 |
| 20260902171243 | 68 | 228 | 5.0 | 10.0 | 0.00 | 0.00 | 0.00 | 77 | 1020.0 |
| 20260902170740 | 68 | 216 | 5.0 | 11.0 | 0.00 | 0.00 | 0.00 | 76 | 1019.9 |
| 20260902170239 | 68 | 224 | 5.0 | 11.0 | 0.00 | 0.00 | 0.00 | 76 | 1020.0 |
| 20260902165742 | 69 | 216 | 6.0 | 12.0 | 0.00 | 0.00 | 0.00 | 76 | 1020.0 |
| 20260902165242 | 69 | 251 | 5.0 | 12.0 | 0.00 | 0.00 | 0.00 | 76 | 1020.0 |
| 20260902164741 | 69 | 202 | 4.0 | 9.0 | 0.00 | 0.00 | 0.00 | 76 | 1020.0 |
| 20260902164241 | 69 | 199 | 4.0 | 9.0 | 0.00 | 0.00 | 0.00 | 76 | 1020.0 |
| 20260902163739 | 69 | 185 | 5.0 | 9.0 | 0.00 | 0.00 | 0.00 | 76 | 1020.0 |
| 20260902163241 | 69 | 218 | 5.0 | 11.0 | 0.00 | 0.00 | 0.00 | 76 | 1020.0 |
| 20260902162740 | 69 | 229 | 4.0 | 11.0 | 0.00 | 0.00 | 0.00 | 76 | 1020.1 |
| 20260902162240 | 69 | 222 | 4.0 | 9.0 | 0.00 | 0.00 | 0.00 | 76 | 1020.1 |
| 20260902161741 | 69 | 204 | 5.0 | 10.0 | 0.00 | 0.00 | 0.00 | 76 | 1020.2 |
| 20260902161240 | 69 | 216 | 6.0 | 14.0 | 0.00 | 0.00 | 0.00 | 75 | 1020.1 |
| 20260902161211 | 69 | 230 | 6.0 | 14.0 | 0.00 | 0.00 | 0.00 | 75 | 1020.1 |
| 20260902160235 | 69 | 229 | 6.0 | 12.0 | 0.00 | 0.00 | 0.00 | 76 | 1020.3 |
| 20260902155735 | 69 | 173 | 7.0 | 12.0 | 0.00 | 0.00 | 0.00 | 76 | 1020.4 |
| 20260902155237 | 69 | 216 | 7.0 | 13.0 | 0.00 | 0.00 | 0.00 | 76 | 1020.4 |
| 20260902154735 | 69 | 228 | 6.0 | 13.0 | 0.00 | 0.00 | 0.00 | 77 | 1020.4 |
| 20260902154237 | 69 | 236 | 6.0 | 12.0 | 0.00 | 0.00 | 0.00 | 77 | 1020.5 |
| 20260902154219 | 69 | 259 | 6.0 | 11.0 | 0.00 | 0.00 | 0.00 | 77 | 1020.5 |
| 20260902153944 | 69 | 229 | 6.0 | 12.0 | 0.00 | 0.00 | 0.00 | 77 | 1020.5 |
| 20260902152731 | 69 | 220 | 7.0 | 13.0 | 0.00 | 0.00 | 0.00 | 76 | 1020.5 |
| 20260902152233 | 69 | 238 | 7.0 | 14.0 | 0.00 | 0.00 | 0.00 | 75 | 1020.5 |
| 20260902151734 | 69 | 223 | 7.0 | 15.0 | 0.00 | 0.00 | 0.00 | 75 | 1020.5 |
| 20260902151231 | 69 | 248 | 9.0 | 17.0 | 0.00 | 0.00 | 0.00 | 74 | 1020.6 |
| 20260902150734 | 69 | 190 | 8.0 | 17.0 | 0.00 | 0.00 | 0.00 | 74 | 1020.6 |
| 20260902150729 | 69 | 268 | 7.0 | 16.0 | 0.00 | 0.00 | 0.00 | 74 | 1020.6 |
| 20260902150445 | 69 | 270 | 7.0 | 16.0 | 0.00 | 0.00 | 0.00 | 73 | 1020.7 |
| 20260902145236 | 69 | 247 | 6.0 | 12.0 | 0.00 | 0.00 | 0.00 | 75 | 1020.6 |
| 20260902144735 | 69 | 233 | 7.0 | 15.0 | 0.00 | 0.00 | 0.00 | 75 | 1020.7 |
| 20260902144230 | 69 | 224 | 7.0 | 15.0 | 0.00 | 0.00 | 0.00 | 73 | 1020.7 |
| 20260902143732 | 69 | 245 | 9.0 | 19.0 | 0.00 | 0.00 | 0.00 | 73 | 1020.7 |
| 20260902143232 | 70 | 216 | 10.0 | 19.0 | 0.00 | 0.00 | 0.00 | 74 | 1020.7 |
| 20260902142731 | 70 | 241 | 8.0 | 16.0 | 0.00 | 0.00 | 0.00 | 74 | 1020.6 |
| 20260902142232 | 70 | 266 | 8.0 | 16.0 | 0.00 | 0.00 | 0.00 | 74 | 1020.6 |
| 20260902142207 | 70 | 246 | 9.0 | 16.0 | 0.00 | 0.00 | 0.00 | 72 | 1020.7 |
| 20260902141246 | 70 | 265 | 9.0 | 18.0 | 0.00 | 0.00 | 0.00 | 71 | 1020.6 |
| 20260902141234 | 70 | 184 | 8.0 | 16.0 | 0.00 | 0.00 | 0.00 | 72 | 1020.6 |
| 20260902140233 | 71 | 229 | 8.0 | 18.0 | 0.00 | 0.00 | 0.00 | 70 | 1020.6 |
| 20260902135732 | 71 | 212 | 8.0 | 17.0 | 0.00 | 0.00 | 0.00 | 71 | 1020.5 |
| 20260902135232 | 71 | 266 | 8.0 | 17.0 | 0.00 | 0.00 | 0.00 | 70 | 1020.6 |
| 20260902134732 | 71 | 239 | 7.0 | 15.0 | 0.00 | 0.00 | 0.00 | 71 | 1020.6 |
| 20260902134234 | 71 | 204 | 8.0 | 17.0 | 0.00 | 0.00 | 0.00 | 70 | 1020.5 |
| 20260902133731 | 71 | 229 | 9.0 | 17.0 | 0.00 | 0.00 | 0.00 | 69 | 1020.6 |
| 20260902133234 | 72 | 191 | 9.0 | 16.0 | 0.00 | 0.00 | 0.00 | 68 | 1020.6 |
| 20260902132730 | 72 | 245 | 10.0 | 19.0 | 0.00 | 0.00 | 0.00 | 67 | 1020.6 |
| 20260902132236 | 72 | 233 | 9.0 | 19.0 | 0.00 | 0.00 | 0.00 | 67 | 1020.6 |
| 20260902131733 | 72 | 208 | 7.0 | 17.0 | 0.00 | 0.00 | 0.00 | 69 | 1020.6 |
| 20260902131231 | 71 | 228 | 8.0 | 17.0 | 0.00 | 0.00 | 0.00 | 68 | 1020.6 |
| 20260902131151 | 72 | 229 | 9.0 | 18.0 | 0.00 | 0.00 | 0.00 | 67 | 1020.5 |
| 20260902130931 | 71 | 232 | 10.0 | 17.0 | 0.00 | 0.00 | 0.00 | 67 | 1020.6 |
| 20260902125939 | 71 | 280 | 8.0 | 18.0 | 0.00 | 0.00 | 0.00 | 69 | 1020.5 |
| 20260902124735 | 70 | 187 | 7.0 | 15.0 | 0.00 | 0.00 | 0.00 | 75 | 1020.6 |
| 20260902124231 | 69 | 208 | 8.0 | 14.0 | 0.00 | 0.00 | 0.00 | 75 | 1020.5 |
| 20260902124216 | 69 | 251 | 7.0 | 14.0 | 0.00 | 0.00 | 0.00 | 76 | 1020.7 |
| 20260902123234 | 69 | 233 | 4.0 | 11.0 | 0.00 | 0.00 | 0.00 | 80 | 1020.6 |
| 20260902122731 | 69 | 235 | 4.0 | 10.0 | 0.00 | 0.00 | 0.00 | 83 | 1020.6 |
| 20260902122720 | 68 | 225 | 5.0 | 10.0 | 0.00 | 0.00 | 0.00 | 83 | 1020.6 |
| 20260902121731 | 67 | 221 | 3.0 | 8.0 | 0.00 | 0.00 | 0.00 | 85 | 1020.6 |
| 20260902121232 | 67 | 241 | 3.0 | 8.0 | 0.00 | 0.00 | 0.00 | 85 | 1020.7 |
| 20260902120731 | 67 | 233 | 3.0 | 8.0 | 0.00 | 0.00 | 0.00 | 85 | 1020.7 |
| 20260902120231 | 67 | 235 | 3.0 | 8.0 | 0.00 | 0.00 | 0.00 | 84 | 1020.8 |
| 20260902115731 | 67 | 222 | 4.0 | 12.0 | 0.00 | 0.00 | 0.00 | 84 | 1020.8 |
| 20260902115232 | 67 | 202 | 6.0 | 12.0 | 0.00 | 0.00 | 0.00 | 83 | 1020.9 |
| 20260902114735 | 68 | 231 | 6.0 | 14.0 | 0.00 | 0.00 | 0.00 | 81 | 1021.0 |
| 20260902114724 | 68 | 233 | 6.0 | 14.0 | 0.00 | 0.00 | 0.00 | 81 | 1020.9 |
| 20260902113731 | 68 | 198 | 7.0 | 13.0 | 0.00 | 0.00 | 0.00 | 81 | 1020.9 |
| 20260902113231 | 68 | 261 | 6.0 | 13.0 | 0.00 | 0.00 | 0.00 | 81 | 1020.9 |
| 20260902112733 | 68 | 239 | 6.0 | 11.0 | 0.00 | 0.00 | 0.00 | 82 | 1020.9 |
| 20260902112230 | 68 | 185 | 6.0 | 11.0 | 0.00 | 0.00 | 0.00 | 82 | 1020.9 |
| 20260902111734 | 68 | 244 | 6.0 | 14.0 | 0.00 | 0.00 | 0.00 | 81 | 1021.0 |
| 20260902111232 | 68 | 248 | 6.0 | 14.0 | 0.00 | 0.00 | 0.00 | 81 | 1021.0 |
| 20260902110751 | 69 | 231 | 9.0 | 17.0 | 0.00 | 0.00 | 0.00 | 81 | 1020.9 |
| 20260902110735 | 68 | 238 | 7.0 | 15.0 | 0.00 | 0.00 | 0.00 | 81 | 1021.0 |
| 20260902110217 | 70 | 247 | 5.0 | 11.0 | 0.00 | 0.00 | 0.00 | 80 | 1020.9 |
| 20260902110209 | 70 | 181 | 6.0 | 16.0 | 0.00 | 0.00 | 0.00 | 79 | 1020.9 |
| 20260902105935 | 69 | 191 | 8.0 | 17.0 | 0.00 | 0.00 | 0.00 | 80 | 1020.9 |
| 20260902104232 | 70 | 229 | 5.0 | 11.0 | 0.00 | 0.00 | 0.00 | 80 | 1020.9 |
| 20260902103733 | 70 | 187 | 6.0 | 10.0 | 0.00 | 0.00 | 0.00 | 81 | 1020.8 |
| 20260902103231 | 70 | 261 | 5.0 | 11.0 | 0.00 | 0.00 | 0.00 | 81 | 1020.8 |